Location: Αθήνα
(37.9839°N, 23.7283°E)
Time: 19:50:52
(UTC+03:00)

ISS - Pass Details

Date: 25 June 2024
Orbit: 410 x 424 km, 51.6° (Epoch: 12 July)

Event Time Altitude Azimuth Distance (km) Brightness Sun altitude
Exits shadow 03:13:52 16° 94° (E) 1,159 -1.3 -23.8°
Drops below altitude 10° 03:14:59 10° 78° (ENE) 1,484 -0.5 -23.7°
Sets 03:17:22 0° 63° (ENE) 2,354 0.9 -23.5°
